FW4559 Weather Reports


time (UTC)temp
C
wind
direction
speed
KPH
gust
KPH
rain 1hr
cm
rain 24hr
cm
rain mn
cm
humidity
%
barometer
mb
20260906135025 16 330 0.0 0.0 0.36 0.38 0.36 94 1013.2
20260906134525 16 330 0.0 0.0 0.30 0.33 0.30 94 1013.3
20260906134025 16 330 0.0 0.0 0.25 0.28 0.25 94 1013.3
20260906133524 16 330 0.0 0.0 0.23 0.25 0.23 94 1013.4
20260906133026 17 354 0.0 0.0 0.18 0.20 0.18 94 1013.5
20260906132524 17 354 0.0 0.0 0.15 0.18 0.15 94 1013.5
20260906132023 17 354 0.0 3.2 0.13 0.15 0.13 93 1013.5
20260906131524 17 354 0.0 3.2 0.08 0.10 0.08 93 1013.6
20260906131021 17 358 0.0 3.2 0.05 0.08 0.05 93 1013.5
20260906130522 17 325 0.0 3.2 0.05 0.08 0.05 94 1013.6
20260906130033 17 333 0.0 9.7 0.00 0.03 0.00 95 1013.4
20260906125523 17 7 3.2 17.7 0.00 0.03 0.00 96 1013.4
20260906125021 17 348 4.8 17.7 0.00 0.03 0.00 95 1013.2
20260906124518 17 333 0.0 3.2 0.00 0.03 0.00 95 1012.9
20260906124018 17 113 0.0 0.0 0.00 0.03 0.00 95 1012.6
20260906123516 17 112 0.0 0.0 0.00 0.03 0.00 96 1012.5
20260906123028 17 113 0.0 0.0 0.00 0.03 0.00 95 1012.4
20260906122517 17 112 0.0 0.0 0.00 0.03 0.00 95 1012.3
20260906122013 17 112 0.0 0.0 0.00 0.03 0.00 95 1012.2
20260906121513 18 113 0.0 0.0 0.00 0.03 0.00 95 1012.1
20260906121012 18 112 0.0 0.0 0.00 0.03 0.00 95 1012.3
20260906120511 18 113 0.0 0.0 0.00 0.03 0.00 96 1012.1
20260906120011 18 113 0.0 0.0 0.00 0.03 0.00 96 1012.2
20260906115511 18 113 0.0 0.0 0.00 0.03 0.00 96 1012.0
20260906115009 18 113 0.0 1.6 0.00 0.03 0.00 96 1011.8
20260906114510 17 128 0.0 1.6 0.00 0.03 0.00 96 1011.6
20260906114007 17 125 0.0 1.6 0.00 0.03 0.00 96 1011.7
20260906113506 17 131 0.0 0.0 0.00 0.03 0.00 96 1011.7
20260906113011 17 131 0.0 0.0 0.00 0.03 0.00 96 1011.8
20260906112506 17 132 0.0 0.0 0.00 0.03 0.00 96 1011.9
20260906112006 17 131 0.0 0.0 0.00 0.03 0.00 96 1011.7
20260906111505 17 131 0.0 1.6 0.00 0.03 0.00 96 1011.8
20260906111005 17 131 0.0 1.6 0.00 0.03 0.00 96 1011.7
20260906110505 17 131 0.0 3.2 0.00 0.03 0.00 96 1011.5
20260906110104 17 91 0.0 3.2 0.00 0.03 0.00 96 1011.4
20260906105504 17 99 0.0 3.2 0.00 0.03 0.00 96 1011.4
20260906105008 17 106 0.0 1.6 0.00 0.03 0.00 96 1011.3
20260906104507 17 106 0.0 1.6 0.00 0.03 0.00 95 1011.4
20260906104004 17 106 0.0 1.6 0.00 0.03 0.00 95 1011.5
20260906103504 17 89 0.0 3.2 0.00 0.03 0.00 95 1011.5
20260906103011 17 89 0.0 3.2 0.00 0.03 0.00 96 1011.5
20260906102504 16 82 0.0 0.0 0.00 0.03 0.00 96 1011.3
20260906102006 16 82 0.0 0.0 0.00 0.03 0.00 96 1011.4
20260906101504 16 82 0.0 1.6 0.00 0.03 0.00 96 1011.4
20260906101003 16 82 0.0 1.6 0.00 0.03 0.00 96 1011.4
20260906100503 16 349 0.0 0.0 0.00 0.03 0.00 96 1011.3
20260906100007 16 349 0.0 0.0 0.00 0.03 0.00 96 1011.2
20260906095502 16 349 0.0 0.0 0.00 0.03 0.00 96 1011.2
20260906095002 16 349 0.0 1.6 0.00 0.03 0.00 96 1011.0
20260906094502 16 349 0.0 3.2 0.00 0.03 0.00 96 1011.0
20260906094002 16 349 1.6 3.2 0.00 0.03 0.00 96 1010.9
20260906093503 16 166 0.0 1.6 0.00 0.03 0.00 96 1011.0
20260906093003 16 166 0.0 1.6 0.00 0.03 0.00 96 1011.0
20260906092502 16 166 0.0 0.0 0.00 0.03 0.00 96 1011.0
20260906092100 16 166 0.0 0.0 0.00 0.03 0.00 96 1010.9
20260906091600 16 166 0.0 0.0 0.00 0.03 0.00 96 1010.9
20260906091100 16 166 0.0 0.0 0.00 0.03 0.00 96 1010.9
20260906090559 17 166 0.0 0.0 0.00 0.03 0.00 96 1011.0
20260906090100 17 166 0.0 0.0 0.00 0.03 0.00 96 1011.0
20260906085559 17 166 0.0 0.0 0.00 0.03 0.00 96 1011.0
20260906085059 17 166 0.0 0.0 0.00 0.03 0.00 96 1011.1
20260906084602 17 166 0.0 1.6 0.00 0.03 0.00 96 1011.0
20260906084102 17 133 0.0 3.2 0.00 0.03 0.00 96 1010.9
20260906083603 16 133 1.6 3.2 0.00 0.03 0.00 96 1010.8
20260906083100 16 148 0.0 0.0 0.00 0.03 0.00 96 1010.8
20260906082558 16 148 0.0 0.0 0.00 0.03 0.00 96 1010.9
20260906082058 16 148 0.0 0.0 0.00 0.03 0.00 96 1010.8
20260906081559 16 148 0.0 0.0 0.00 0.03 0.00 96 1010.7
20260906081057 17 148 0.0 0.0 0.00 0.03 0.00 96 1010.7
20260906080600 17 148 0.0 0.0 0.00 0.03 0.00 96 1010.8
20260906080058 17 148 0.0 3.2 0.00 0.03 0.00 95 1010.7
20260906075559 16 148 0.0 3.2 0.00 0.03 0.00 95 1010.8
20260906075057 16 138 0.0 0.0 0.00 0.03 0.00 96 1010.9
20260906074557 16 138 0.0 0.0 0.00 0.03 0.00 96 1010.9
20260906074056 16 138 0.0 0.0 0.00 0.03 0.00 96 1011.0
20260906073556 16 139 0.0 0.0 0.00 0.03 0.00 96 1011.0
20260906073055 16 138 0.0 0.0 0.00 0.03 0.00 96 1011.0
20260906072555 16 138 0.0 0.0 0.00 0.03 0.00 96 1011.0
20260906072057 16 138 0.0 0.0 0.00 0.03 0.00 96 1011.0
20260906071555 17 139 0.0 0.0 0.00 0.03 0.00 96 1011.0
20260906071054 17 138 0.0 0.0 0.00 0.03 0.00 96 1010.9
20260906070556 16 138 0.0 0.0 0.00 0.03 0.00 96 1010.8
20260906070054 16 138 0.0 0.0 0.00 0.03 0.00 95 1010.8
20260906065554 16 138 0.0 0.0 0.00 0.03 0.00 96 1010.9
20260906065053 16 138 0.0 0.0 0.00 0.03 0.00 95 1011.1
20260906064551 16 138 0.0 0.0 0.00 0.03 0.00 95 1011.3
20260906064051 16 138 0.0 0.0 0.00 0.03 0.00 95 1011.4
20260906063550 16 138 0.0 0.0 0.00 0.03 0.00 95 1011.6
20260906063049 17 138 0.0 0.0 0.00 0.03 0.00 95 1011.6
20260906062549 17 138 0.0 0.0 0.00 0.03 0.00 95 1011.6
20260906062047 17 139 0.0 0.0 0.00 0.03 0.00 95 1011.9
20260906061552 17 138 0.0 0.0 0.00 0.03 0.00 95 1011.9
20260906061047 17 138 0.0 0.0 0.00 0.03 0.00 95 1011.8
20260906060547 17 138 0.0 0.0 0.00 0.03 0.00 95 1011.9
20260906060047 17 138 0.0 0.0 0.00 0.03 0.00 95 1012.0
20260906055546 17 138 0.0 0.0 0.00 0.03 0.00 95 1012.0
20260906055047 17 138 0.0 0.0 0.00 0.03 0.00 95 1012.2
20260906054601 17 138 0.0 0.0 0.00 0.03 0.00 95 1012.1
20260906054045 17 139 0.0 0.0 0.00 0.03 0.00 94 1012.1
20260906053544 17 138 0.0 0.0 0.00 0.03 0.00 94 1012.1
20260906053044 17 139 0.0 0.0 0.00 0.03 0.00 93 1011.9
20260906052544 17 138 0.0 0.0 0.00 0.03 0.00 93 1012.0
20260906052042 17 138 0.0 0.0 0.00 0.03 0.00 94 1012.1
20260906051542 17 138 0.0 0.0 0.00 0.03 0.00 94 1011.9
20260906051043 17 138 0.0 1.6 0.00 0.03 0.00 94 1012.0
20260906050543 17 138 0.0 1.6 0.00 0.03 0.00 94 1012.1
20260906050040 17 138 0.0 1.6 0.00 0.03 0.00 94 1012.1
20260906045539 17 139 0.0 1.6 0.00 0.03 0.00 94 1012.1
20260906045038 17 153 0.0 0.0 0.00 0.03 0.00 94 1012.3
20260906044538 17 153 0.0 0.0 0.00 0.03 0.00 94 1012.3
20260906044039 17 153 0.0 0.0 0.00 0.03 0.00 94 1012.3
20260906043538 17 153 0.0 0.0 0.00 0.03 0.00 94 1012.2
20260906043037 17 153 0.0 0.0 0.00 0.03 0.00 93 1012.2
20260906042537 17 153 0.0 0.0 0.00 0.03 0.00 93 1012.3
20260906042035 17 153 0.0 0.0 0.00 0.03 0.00 93 1012.4
20260906041535 17 153 0.0 0.0 0.00 0.03 0.00 93 1012.4
20260906041035 17 153 0.0 0.0 0.00 0.03 0.00 92 1012.4
20260906040533 17 153 0.0 0.0 0.00 0.03 0.00 92 1012.4
20260906040044 17 153 0.0 0.0 0.00 0.03 0.00 92 1012.4
20260906035532 17 153 0.0 0.0 0.00 0.03 0.03 92 1012.4
20260906035032 17 153 0.0 0.0 0.00 0.03 0.03 91 1012.5
20260906034546 17 153 0.0 0.0 0.00 0.03 0.03 91 1012.4
20260906034031 18 153 0.0 0.0 0.00 0.03 0.03 91 1012.5
20260906033532 18 153 0.0 1.6 0.00 0.03 0.03 90 1012.5
20260906033031 18 153 0.0 1.6 0.00 0.03 0.03 90 1012.4
20260906032530 18 153 0.0 0.0 0.00 0.03 0.03 90 1012.6
20260906032034 18 153 0.0 1.6 0.00 0.03 0.03 89 1012.6
20260906031558 18 140 0.0 1.6 0.00 0.03 0.03 89 1012.4
20260906031032 18 157 0.0 0.0 0.00 0.03 0.03 88 1012.3
20260906030530 18 157 0.0 1.6 0.00 0.03 0.03 87 1012.4
20260906030032 19 139 0.0 1.6 0.00 0.03 0.03 87 1012.5
20260906025531 19 139 0.0 0.0 0.00 0.03 0.03 86 1012.4
20260906025032 19 139 0.0 3.2 0.00 0.03 0.03 86 1012.5
20260906024550 19 139 0.0 3.2 0.00 0.03 0.03 87 1012.4
20260906024031 19 156 0.0 1.6 0.00 0.03 0.03 87 1012.4
20260906023530 19 171 0.0 1.6 0.00 0.03 0.03 87 1012.5
20260906023027 18 166 0.0 1.6 0.00 0.03 0.03 87 1012.4
20260906022526 18 166 0.0 1.6 0.00 0.03 0.03 86 1012.3
20260906022025 19 162 0.0 1.6 0.00 0.03 0.03 86 1012.2
20260906021524 19 207 0.0 0.0 0.00 0.03 0.03 84 1012.2
20260906021024 20 207 0.0 0.0 0.00 0.03 0.03 83 1012.1
20260906020527 20 207 0.0 0.0 0.00 0.03 0.03 83 1012.2
20260906020024 20 207 0.0 0.0 0.00 0.03 0.03 82 1012.1
20260906015525 20 207 0.0 0.0 0.00 0.03 0.03 81 1012.2
20260906015023 20 207 0.0 0.0 0.00 0.03 0.03 80 1012.2
20260906014524 20 207 0.0 0.0 0.00 0.03 0.03 80 1012.1
20260906014023 20 207 0.0 1.6 0.00 0.03 0.03 79 1012.0
20260906013523 21 207 0.0 1.6 0.00 0.03 0.03 79 1012.0
20260906013023 21 207 0.0 1.6 0.00 0.03 0.03 77 1012.1
20260906012523 21 349 0.0 1.6 0.00 0.03 0.03 76 1011.9
20260906012022 21 349 0.0 1.6 0.00 0.03 0.03 75 1011.8
20260906011522 22 349 0.0 4.8 0.00 0.03 0.03 74 1011.9
20260906011021 22 349 0.0 4.8 0.00 0.03 0.03 74 1011.8
20260906010522 22 343 0.0 3.2 0.00 0.03 0.03 73 1011.8
20260906010040 22 326 0.0 8.0 0.00 0.03 0.03 73 1011.5
20260906005521 22 11 1.6 8.0 0.00 0.03 0.03 73 1011.4
20260906005022 22 336 1.6 16.1 0.00 0.03 0.03 72 1011.4
20260906004522 22 11 1.6 16.1 0.00 0.03 0.03 72 1011.5
20260906004022 22 326 1.6 8.0 0.00 0.03 0.03 71 1011.3
20260906003521 22 320 1.6 11.3 0.00 0.03 0.03 71 1011.3
20260906003021 22 311 1.6 6.4 0.00 0.03 0.03 71 1011.4
20260906002520 22 18 0.0 4.8 0.00 0.03 0.03 70 1011.4
20260906002024 22 341 0.0 6.4 0.00 0.03 0.03 70 1011.3
20260906001524 22 354 1.6 6.4 0.00 0.03 0.03 70 1011.2
20260906001019 22 343 1.6 6.4 0.00 0.03 0.03 70 1011.2
20260906000519 22 345 3.2 4.8 0.00 0.03 0.03 70 1011.1
20260906000021 22 351 0.0 3.2 0.00 0.03 0.03 70 1011.0
20260905235519 22 355 0.0 0.0 0.00 0.03 0.03 70 1010.9
20260905235021 23 355 0.0 0.0 0.00 0.03 0.03 69 1010.9
20260905234518 23 355 0.0 0.0 0.00 0.03 0.03 68 1011.0
20260905234019 23 355 0.0 0.0 0.00 0.03 0.03 67 1010.9
20260905233519 23 355 0.0 1.6 0.00 0.03 0.03 67 1010.9
20260905233020 24 355 0.0 1.6 0.00 0.03 0.03 67 1010.8
20260905232518 24 355 0.0 4.8 0.00 0.03 0.03 67 1010.9
20260905232018 24 354 0.0 3.2 0.00 0.03 0.03 66 1010.9
20260905231517 24 353 0.0 4.8 0.00 0.03 0.03 65 1010.8
20260905231019 25 360 0.0 4.8 0.00 0.03 0.03 64 1010.8
20260905230517 25 360 0.0 6.4 0.00 0.03 0.03 63 1010.8
20260905230030 25 340 1.6 6.4 0.00 0.03 0.03 63 1010.9
20260905225521 25 8 0.0 8.0 0.00 0.03 0.03 62 1010.9
20260905225017 25 346 1.6 9.7 0.00 0.03 0.03 62 1010.9
20260905224520 25 7 4.8 9.7 0.00 0.03 0.03 60 1011.0
20260905224017 25 340 1.6 17.7 0.00 0.03 0.03 60 1011.0
20260905223516 25 347 3.2 17.7 0.00 0.03 0.03 60 1010.9
20260905223018 25 349 3.2 12.9 0.00 0.03 0.03 59 1011.0
20260905222517 25 40 3.2 14.5 0.00 0.03 0.03 59 1011.1
20260905222015 25 20 3.2 14.5 0.00 0.03 0.03 58 1010.9
20260905221615 26 352 1.6 12.9 0.00 0.03 0.03 58 1011.0
20260905221016 26 344 1.6 14.5 0.00 0.03 0.03 58 1010.9
20260905220516 26 323 6.4 14.5 0.00 0.03 0.03 57 1010.9
20260905220016 26 311 3.2 12.9 0.00 0.03 0.03 57 1010.9
20260905215516 26 20 4.8 12.9 0.00 0.03 0.03 56 1011.0
20260905215014 26 316 4.8 12.9 0.00 0.03 0.03 55 1010.8
20260905214515 26 335 1.6 12.9 0.00 0.03 0.03 56 1010.8
20260905214014 26 10 3.2 14.5 0.00 0.03 0.03 54 1010.7
20260905213517 26 17 3.2 12.9 0.00 0.03 0.03 54 1010.6
20260905213014 26 6 4.8 19.3 0.00 0.03 0.03 53 1010.7
20260905212513 26 4 3.2 19.3 0.00 0.03 0.03 53 1010.7
20260905212012 26 358 6.4 19.3 0.00 0.03 0.03 52 1010.7
20260905211529 26 325 4.8 19.3 0.00 0.03 0.03 51 1010.8
20260905211013 26 307 0.0 16.1 0.00 0.03 0.03 52 1010.6
20260905210512 27 349 4.8 12.9 0.00 0.03 0.03 51 1010.7
20260905210012 27 335 0.0 19.3 0.00 0.03 0.03 52 1010.8
20260905205511 26 336 4.8 19.3 0.00 0.03 0.03 52 1010.7
20260905205011 26 329 3.2 20.9 0.00 0.03 0.03 52 1010.7
20260905204510 26 345 4.8 20.9 0.00 0.03 0.03 54 1010.7
20260905204015 27 309 6.4 14.5 0.00 0.03 0.03 53 1010.7
20260905203510 27 329 3.2 14.5 0.00 0.03 0.03 55 1010.7
20260905203009 27 24 3.2 8.0 0.00 0.03 0.03 58 1010.6
20260905202508 26 347 0.0 3.2 0.00 0.03 0.03 61 1010.7
20260905202007 26 271 0.0 6.4 0.00 0.03 0.03 62 1010.7
20260905201505 26 347 3.2 6.4 0.00 0.03 0.03 61 1010.8
20260905201005 26 345 1.6 6.4 0.00 0.03 0.03 62 1010.7
20260905200508 26 2 0.0 9.7 0.00 0.03 0.03 63 1010.7
20260905200008 26 345 1.6 9.7 0.00 0.03 0.03 61 1010.7
20260905195505 26 359 1.6 4.8 0.00 0.03 0.03 61 1010.6
20260905195004 25 182 0.0 4.8 0.00 0.03 0.03 63 1010.6
20260905194504 25 76 0.0 3.2 0.00 0.03 0.03 63 1010.7
20260905194003 25 210 0.0 3.2 0.00 0.03 0.03 64 1010.5
20260905193502 24 207 0.0 3.2 0.00 0.03 0.03 66 1010.4
20260905193002 23 340 0.0 3.2 0.00 0.03 0.03 66 1010.5
20260905192503 23 86 0.0 3.2 0.00 0.03 0.03 67 1010.4
20260905192100 23 18 0.0 6.4 0.00 0.03 0.03 69 1010.4
20260905192000 23 319 0.0 6.4 0.00 0.03 0.03 70 1010.4
20260905191501 23 346 1.6 9.7 0.00 0.03 0.03 71 1010.4
20260905191003 22 84 1.6 9.7 0.00 0.03 0.03 72 1010.3
20260905190501 22 152 0.0 3.2 0.00 0.03 0.03 76 1010.3
20260905190100 22 25 0.0 4.8 0.00 0.03 0.03 77 1010.2
20260905185601 22 12 0.0 4.8 0.00 0.03 0.03 79 1010.3
20260905185059 22 347 3.2 4.8 0.00 0.03 0.03 77 1010.3
20260905184559 22 351 0.0 3.2 0.03 0.03 0.03 78 1010.4
20260905184058 22 358 0.0 3.2 0.03 0.03 0.03 77 1010.4
20260905183558 22 358 0.0 3.2 0.03 0.03 0.03 78 1010.5
20260905183058 21 3 0.0 3.2 0.03 0.03 0.03 79 1010.6
20260905182556 21 134 0.0 1.6 0.03 0.03 0.03 82 1010.9
20260905182055 21 212 0.0 1.6 0.03 0.03 0.03 83 1011.1
20260905181555 20 195 0.0 8.0 0.03 0.03 0.03 84 1011.2
20260905181052 20 179 1.6 8.0 0.03 0.03 0.03 84 1011.5
20260905180553 20 212 1.6 6.4 0.03 0.03 0.03 84 1011.9
20260905180101 20 357 0.0 4.8 0.03 0.03 0.03 82 1011.7
20260905175553 20 357 0.0 4.8 0.03 0.03 0.03 79 1011.7
20260905175052 20 355 0.0 3.2 0.03 0.03 0.03 79 1011.5
20260905174555 21 7 0.0 8.0 0.00 0.00 0.00 77 1011.6
20260905174054 21 333 0.0 9.7 0.00 0.00 0.00 75 1012.3
20260905173551 21 356 1.6 11.3 0.00 0.00 0.00 72 1012.7
20260905173100 22 360 3.2 11.3 0.00 0.00 0.00 70 1013.0
20260905172550 22 350 1.6 16.1 0.00 0.00 0.00 69 1012.9
20260905172050 22 345 4.8 16.1 0.00 0.00 0.00 68 1013.2
20260905171549 23 349 1.6 9.7 0.00 0.00 0.00 67 1013.3
20260905171048 23 7 0.0 11.3 0.00 0.00 0.00 66 1013.4
20260905170549 23 357 0.0 25.7 0.00 0.00 0.00 67 1013.6
20260905170049 23 327 9.7 25.7 0.00 0.00 0.00 65 1013.6
20260905165548 24 337 8.0 27.4 0.00 0.00 0.00 65 1013.6
20260905165052 25 339 12.9 40.2 0.00 0.00 0.00 66 1013.4
20260905164548 25 26 11.3 40.2 0.00 0.00 0.00 68 1013.3
20260905164047 26 315 4.8 20.9 0.00 0.00 0.00 71 1013.2
20260905163550 26 30 9.7 20.9 0.00 0.00 0.00 69 1013.2
20260905163049 26 328 3.2 27.4 0.00 0.00 0.00 69 1013.3
20260905162548 26 317 8.0 27.4 0.00 0.00 0.00 67 1013.2
20260905162046 26 353 8.0 24.1 0.00 0.00 0.00 66 1013.1
20260905161546 27 142 4.8 25.7 0.00 0.00 0.00 65 1012.9
20260905161047 27 356 4.8 22.5 0.00 0.00 0.00 65 1012.8
20260905160546 27 306 4.8 22.5 0.00 0.00 0.00 64 1012.8
20260905160046 27 291 4.8 20.9 0.00 0.00 0.00 64 1012.7
20260905155549 27 338 3.2 14.5 0.00 0.00 0.00 68 1012.9
20260905155046 27 324 4.8 14.5 0.00 0.00 0.00 68 1013.0
20260905154546 26 245 3.2 22.5 0.00 0.00 0.00 70 1013.1
20260905154048 26 339 4.8 22.5 0.00 0.00 0.00 70 1013.0
20260905153545 26 330 8.0 20.9 0.00 0.00 0.00 68 1013.1
20260905153045 26 257 9.7 20.9 0.00 0.00 0.00 67 1012.9
20260905152545 26 331 4.8 19.3 0.00 0.00 0.00 67 1013.0
20260905152044 27 360 4.8 22.5 0.00 0.00 0.00 67 1012.9
20260905151548 26 51 8.0 22.5 0.00 0.00 0.00 68 1012.9
20260905151044 27 336 6.4 17.7 0.00 0.00 0.00 68 1012.7
20260905150544 27 314 4.8 17.7 0.00 0.00 0.00 69 1012.6
20260905150044 26 349 8.0 17.7 0.00 0.00 0.00 69 1012.6
20260905145543 27 12 9.7 17.7 0.00 0.00 0.00 68 1012.6
20260905145042 27 327 6.4 12.9 0.00 0.00 0.00 68 1012.6
20260905144541 27 4 4.8 19.3 0.00 0.00 0.00 68 1012.6
20260905144044 27 333 6.4 19.3 0.00 0.00 0.00 66 1012.7
20260905143544 27 340 0.0 8.0 0.00 0.00 0.00 69 1012.8
20260905143047 27 37 1.6 8.0 0.00 0.00 0.00 69 1012.7
20260905142541 27 300 0.0 3.2 0.00 0.00 0.00 70 1012.8
20260905142038 27 15 0.0 4.8 0.00 0.00 0.00 72 1012.8
20260905141535 27 20 0.0 4.8 0.00 0.00 0.00 72 1012.9
20260905141034 27 350 1.6 4.8 0.00 0.00 0.00 71 1012.9
20260905140534 27 255 0.0 1.6 0.00 0.00 0.00 74 1012.9
20260905140032 26 251 0.0 3.2 0.00 0.00 0.00 78 1012.8
20260905135529 25 335 0.0 4.8 0.00 0.00 0.00 79 1012.8